Regional Weather Roundup
Issued by NWS

Home | Current Version | Previous Version | Graphics & Text | Print | Product List | Glossary On
Versions: 1 2 3 4 5 6 7 8 9 10 11 12 13 14 15 16 17 18 19 20 21 22 23 24 25 26 27 28 29 30 31 32 33 34 35 36 37 38 39 40 41 42 43 44 45 46 47 48 49 50
000
ASUS43 KIND 231259
RWRIN

WEATHER ROUNDUP FOR INDIANA
NATIONAL WEATHER SERVICE INDIANAPOLIS IN
900 AM EDT SAT AUG 23 2014

NOTE: "FAIR" INDICATES FEW OR NO CLOUDS BELOW 12,000 FEET WITH NO
SIGNIFICANT WEATHER AND/OR OBSTRUCTIONS TO VISIBILITY.

* - STATION DOES NOT REPORT WEATHER SUCH AS PRECIPITATION OR FOG.

+ - STATION NOT QUALITY CONTROLLED BY THE NATIONAL WEATHER SERVICE.
    USE DATA WITH CAUTION...ESPECIALLY DEWPOINT AND RELATIVE
    HUMIDITY OBSERVATIONS.

INZ001>003-010>013-019-020-231400-
NORTHWEST INDIANA

CITY           SKY/WX    TMP DP  RH WIND       PRES   REMARKS
KNOX *+        MOSUNNY   72  71  94 CALM      29.99R
MONTICELLO +   SUNNY     73  73  99 CALM      29.99R FOG
RENSSELAER +   SUNNY     68  68 100 CALM      30.00R FOG
VALPARAISO     MOSUNNY   74  72  93 CALM      30.00R

$$

LMZ046-743>745-231400-
SOUTHERN LAKE MICHIGAN

STATION/POSITION TIME  TEMP WIND        PRES
                       AIR  DIR/SP/G
                 (UTC) (F)  (DEG/KT/KT) (MB)
BURNS HARBOR     1200   73  180/  2/  4   N/A
MICHIGAN CITY    1200   73  100/  2/  3   N/A

$$

INZ004-005-014>016-021>024-231400-
NORTH CENTRAL INDIANA

CITY           SKY/WX    TMP DP  RH WIND       PRES   REMARKS
GOSHEN         CLOUDY    75  72  90 SE6       30.01R FOG
SOUTH BEND     FOG       74  73  97 SE8       30.00R VSB 1/2
WARSAW +       CLOUDY    72  72 100 SE3       30.01R FOG

$$

INZ006>009-017-018-025>027-231400-
NORTHEAST INDIANA

CITY           SKY/WX    TMP DP  RH WIND       PRES   REMARKS
ANGOLA *+      CLOUDY    70  63  78 SE6       30.02S
FORT WAYNE     FOG       72  72 100 E6        30.02R VSB 1/2

$$

INZ028-029-035-036-043>045-051>053-231400-
WEST CENTRAL INDIANA

CITY           SKY/WX    TMP DP  RH WIND       PRES   REMARKS
GREENCASTLE +  CLOUDY    72  72 100 CALM      30.01R FOG
LAFAYETTE      PTSUNNY   74  71  91 CALM      29.99R
TERRE HAUTE    PTSUNNY   75  73  93 SE5       29.98R

$$

INZ030>032-037>040-046>048-054>057-064-065-231400-
CENTRAL INDIANA

CITY           SKY/WX    TMP DP  RH WIND       PRES   REMARKS
ANDERSON       SUNNY     73  73 100 CALM      30.02  FOG
COLUMBUS       FOG       72  72 100 CALM      30.01  VSB 1/4
FRANKFORT +    SUNNY    N/A N/A N/A CALM      30.01S
INDIANAPOLIS   PTSUNNY   75  71  87 E5        30.00
-EAGLE CREEK   PTSUNNY   75  71  87 SE5       30.00S
KOKOMO *+      SUNNY     73  72  94 CALM      30.01R
MT COMFORT *+  MOSUNNY   73 N/A N/A CALM      30.01S
SHELBYVILLE    PTSUNNY   74  71  91 CALM      30.01R FOG

$$

INZ033-034-041-042-049-050-058-059-231400-
EAST CENTRAL INDIANA

CITY           SKY/WX    TMP DP  RH WIND       PRES   REMARKS
MUNCIE         SUNNY     74  72  93 CALM      30.01S

$$

INZ060-061-067>069-081>083-085>088-231400-
SOUTHWEST INDIANA

CITY           SKY/WX    TMP DP  RH WIND       PRES   REMARKS
EVANSVILLE     SUNNY     79  71  76 S3        29.97S

$$

INZ062-063-066-070>080-084-089>092-231400-
SOUTH CENTRAL AND SOUTHEAST INDIANA

CITY           SKY/WX    TMP DP  RH WIND       PRES   REMARKS
BLOOMINGTON    CLOUDY    75  72  90 SE3       30.00R

$$




USA.gov is the U.S. government's official web portal to all federal, state and local government web resources and services.